Location: Newark
(7.0858°N, 171.3717°E)
Time: 14:36:37
(UTC+00:00)

Courier 1B Rocket - Pass Details

Date: 06 December 2020
Orbit: 920 x 1202 km, 28.2° (Epoch: 20 January)

Event Time Altitude Azimuth Distance (km) Brightness Sun altitude
Rises 18:32:36 0° 314° (NW) 4,063 7.6 -1.2°
Reaches altitude 10° 18:36:31 10° 332° (NNW) 3,119 7.2 -0.3°
Maximum altitude 18:41:38 18° 13° (NNE) 2,540 7.1 0.9°
Drops below altitude 10° 18:46:44 10° 54° (NE) 3,110 8.1 2.1°
Sets 18:50:37 0° 72° (ENE) 4,047 9.1 2.9°
